Regional Weather Roundup
Issued by NWS Charleston, WV

Home | Current Version | Previous Version | Graphics & Text | Print | Product List | Glossary On
Versions: 1 2 3 4 5 6 7 8 9 10 11 12 13 14 15 16 17 18 19 20 21 22 23 24 25 26 27 28 29 30 31 32 33 34 35 36 37 38 39 40 41 42 43 44 45 46 47 48 49 50
000
ASUS41 KRLX 100310
RWRRLX
West Virginia Regional Weather Roundup
National Weather Service Charleston WV
1000 PM EST TUE FEB 09 2016

Note: "fair" indicates few or no clouds below 12,000 feet with no
significant weather and/or obstructions to visibility.

WVZ003-100400-
Northern Panhandle of West Virginia

CITY           SKY/WX    TMP DP  RH WIND       PRES   REMARKS
WHEELING       LGT SNOW  24  18  77 W14G23    29.72S
$$

WVZ009-100400-
Northwest West Virginia

CITY           SKY/WX    TMP DP  RH WIND       PRES   REMARKS
PARKERSBURG    FLURRIES  24  19  81 W10       29.83S
$$

WVZ006-100400-
Western West Virginia

CITY           SKY/WX    TMP DP  RH WIND       PRES   REMARKS
HUNTINGTON     LGT SNOW  23  18  81 W8        29.88S
$$

WVZ015-100400-
West Central West Virginia

CITY           SKY/WX    TMP DP  RH WIND       PRES   REMARKS
CHARLESTON     LGT SNOW  23  19  85 SW12      29.85S VSB 1
$$

WVZ022-031-100400-
North Central West Virginia

CITY           SKY/WX    TMP DP  RH WIND       PRES   REMARKS
CLARKSBURG     LGT SNOW  22  19  89 SW9       29.77R
MORGANTOWN     LGT SNOW  22  17  81 S7        29.75R
$$

WVZ025-035-042-045-100400-
Southern West Virginia

CITY           SKY/WX    TMP DP  RH WIND       PRES   REMARKS
BECKLEY        LGT SNOW  17  13  84 W8        29.75R FOG     WCI   7
LOGAN          FLURRIES  21  16  79 VRB7      29.83R
BLUEFIELD      FLURRIES  15  10  80 W12G22    29.73S WCI   2
LEWISBURG      LGT SNOW  21  15  78 W9G17     29.74S
$$

WVZ047-100400-
Northern Mountains of West Virginia

CITY           SKY/WX    TMP DP  RH WIND       PRES   REMARKS
ELKINS         LGT SNOW  20  13  74 SW7       29.74R
$$

WVZ052-100400-
Eastern Panhandle of West Virginia

CITY           SKY/WX    TMP DP  RH WIND       PRES   REMARKS
MARTINSBURG    FLURRIES  28  20  71 W12       29.69R
PETERSBURG     CLOUDY    28  13  55 CALM      29.74R
$$



USA.gov is the U.S. government's official web portal to all federal, state and local government web resources and services.